Location: Waco, TX
(31.5480°N, 97.1670°W)
Time: 00:34:17
(UTC-06:00)

ISS - Pass Details

Date: 07 December 2017
Orbit: 403 x 407 km, 51.6° (Epoch: 12 December)

Event Time Altitude Azimuth Distance (km) Brightness Sun altitude
Rises 22:25:45 0° 308° (NW) 2,320 - -63.1°
Reaches altitude 10° 22:27:53 10° 302° (WNW) 1,457 - -63.5°
Maximum altitude 22:31:01 44° 229° (SW) 565 - -64.2°
Drops below altitude 10° 22:34:08 10° 155° (SSE) 1,447 - -64.8°
Sets 22:36:15 0° 149° (SSE) 2,301 - -65.3°
